EW6606 Weather Reports


Display with metric or nautical units.
time (UTC)temp
F
wind
direction
speed
MPH
gust
MPH
rain 1hr
in
rain 24hr
in
rain mn
in
humidity
%
barometer
mb
20260831194056 91 359 2.0 2.0 0.00 0.00 0.00 54 1019.2
20260831193552 92 331 1.0 2.0 0.00 0.00 0.00 54 1019.2
20260831193051 92 284 0.0 2.0 0.00 0.00 0.00 53 1019.2
20260831192547 92 352 0.0 2.0 0.00 0.00 0.00 53 1019.4
20260831192042 92 348 1.0 4.0 0.00 0.00 0.00 53 1019.4
20260831191538 92 38 0.0 2.0 0.00 0.00 0.00 53 1019.4
20260831191033 92 269 2.0 2.0 0.00 0.00 0.00 52 1019.5
20260831190529 92 0 3.0 4.0 0.00 0.00 0.00 52 1019.4
20260831190027 91 6 2.0 3.0 0.00 0.00 0.00 55 1019.7
20260831185523 91 196 2.0 4.0 0.00 0.00 0.00 54 1019.5
20260831185019 90 190 3.0 3.0 0.00 0.00 0.00 55 1019.8
20260831184513 91 232 1.0 2.0 0.00 0.00 0.00 57 1019.8
20260831184008 91 343 0.0 2.0 0.00 0.00 0.00 56 1020.0
20260831183507 91 280 1.0 2.0 0.00 0.00 0.00 56 1019.9
20260831183007 91 321 0.0 3.0 0.00 0.00 0.00 55 1019.9
20260831182502 91 262 3.0 5.0 0.00 0.00 0.00 56 1020.2
20260831181957 91 7 0.0 2.0 0.00 0.00 0.00 56 1020.2
20260831181447 91 244 4.0 6.0 0.00 0.00 0.00 56 1020.1
20260831180942 91 290 2.0 3.0 0.00 0.00 0.00 56 1020.2
20260831180441 91 317 0.0 5.0 0.00 0.00 0.00 58 1020.3
20260831175941 90 355 2.0 3.0 0.00 0.00 0.00 58 1020.3
20260831175437 91 331 2.0 2.0 0.00 0.00 0.00 56 1020.2
20260831174933 91 19 2.0 3.0 0.00 0.00 0.00 55 1020.5
20260831174428 92 343 3.0 4.0 0.00 0.00 0.00 55 1020.4
20260831173927 91 75 0.0 7.0 0.00 0.00 0.00 55 1020.5
20260831173426 91 199 1.0 8.0 0.00 0.00 0.00 54 1020.6
20260831172922 91 137 4.0 5.0 0.00 0.00 0.00 56 1020.5
20260831172418 91 81 4.0 5.0 0.00 0.00 0.00 55 1020.7
20260831171918 91 167 4.0 5.0 0.00 0.00 0.00 56 1020.7
20260831171414 90 216 2.0 6.0 0.00 0.00 0.00 59 1020.8
20260831170911 90 192 5.0 8.0 0.00 0.00 0.00 58 1020.8
20260831170407 89 202 1.0 2.0 0.00 0.00 0.00 62 1020.8
20260831165903 89 240 0.0 3.0 0.00 0.00 0.00 62 1021.0
20260831165358 89 0 2.0 3.0 0.00 0.00 0.00 61 1020.8
20260831164855 89 187 2.0 4.0 0.00 0.00 0.00 61 1021.1
20260831164351 89 60 2.0 6.0 0.00 0.00 0.00 60 1021.1
20260831163846 90 177 2.0 8.0 0.00 0.00 0.00 60 1021.3
20260831163342 89 122 2.0 7.0 0.00 0.00 0.00 60 1021.3
20260831162840 89 194 2.0 10.0 0.00 0.00 0.00 61 1021.4
20260831162336 89 289 0.0 5.0 0.00 0.00 0.00 61 1021.2
20260831161834 89 219 2.0 6.0 0.00 0.00 0.00 61 1021.5
20260831161331 89 106 4.0 7.0 0.00 0.00 0.00 61 1021.5
20260831160826 89 192 6.0 9.0 0.00 0.00 0.00 61 1021.7
20260831160325 88 181 5.0 5.0 0.00 0.00 0.00 63 1021.7
20260831155820 88 206 2.0 5.0 0.00 0.00 0.00 64 1021.7
20260831155315 87 141 3.0 8.0 0.00 0.00 0.00 65 1021.7
20260831154811 87 214 0.0 2.0 0.00 0.00 0.00 66 1021.6
20260831154308 87 205 0.0 8.0 0.00 0.00 0.00 67 1021.7
20260831153805 87 120 2.0 6.0 0.00 0.00 0.00 68 1021.8
20260831153302 86 211 0.0 7.0 0.00 0.00 0.00 68 1021.6
20260831152758 87 198 3.0 6.0 0.00 0.00 0.00 67 1021.7
20260831152253 86 65 1.0 3.0 0.00 0.00 0.00 69 1021.7
20260831151748 86 123 3.0 8.0 0.00 0.00 0.00 69 1021.7
20260831151247 86 184 4.0 6.0 0.00 0.00 0.00 69 1021.6
20260831150742 86 336 1.0 2.0 0.00 0.00 0.00 70 1021.6
20260831150238 85 170 3.0 3.0 0.00 0.00 0.00 71 1021.5
20260831145736 85 161 3.0 7.0 0.00 0.00 0.00 70 1021.6
20260831145233 85 153 3.0 4.0 0.00 0.00 0.00 71 1021.7
20260831144728 85 165 3.0 4.0 0.00 0.00 0.00 74 1021.6
20260831144225 84 282 0.0 4.0 0.00 0.00 0.00 75 1021.7
20260831143724 84 166 2.0 4.0 0.00 0.00 0.00 75 1021.8
20260831143220 83 198 0.0 3.0 0.00 0.00 0.00 76 1021.6
20260831142715 83 329 0.0 3.0 0.00 0.00 0.00 76 1021.8
20260831142210 83 115 3.0 4.0 0.00 0.00 0.00 77 1021.6
20260831141710 82 109 5.0 6.0 0.00 0.00 0.00 77 1021.8
20260831141205 82 133 3.0 4.0 0.00 0.00 0.00 77 1021.8
20260831140704 82 127 3.0 6.0 0.00 0.00 0.00 78 1021.6
20260831140159 81 158 1.0 4.0 0.00 0.00 0.00 79 1021.8
20260831135657 81 135 1.0 4.0 0.00 0.00 0.00 79 1021.9
20260831135153 81 197 2.0 4.0 0.00 0.00 0.00 79 1021.9
20260831134649 80 124 4.0 7.0 0.00 0.00 0.00 80 1021.8
20260831134144 80 214 2.0 5.0 0.00 0.00 0.00 81 1021.9
20260831133643 80 111 3.0 6.0 0.00 0.00 0.00 81 1022.0
20260831133138 79 121 5.0 6.0 0.00 0.00 0.00 82 1021.8
20260831132634 79 138 3.0 5.0 0.00 0.00 0.00 82 1021.8
20260831132133 79 175 2.0 5.0 0.00 0.00 0.00 82 1021.7
20260831131628 78 124 3.0 5.0 0.00 0.00 0.00 83 1021.8
20260831131124 78 114 2.0 4.0 0.00 0.00 0.00 83 1021.7
20260831130619 78 122 2.0 4.0 0.00 0.00 0.00 84 1021.6
20260831130115 77 185 2.0 5.0 0.00 0.00 0.00 84 1021.7
20260831125613 77 127 3.0 6.0 0.00 0.00 0.00 85 1021.6
20260831125109 77 192 2.0 5.0 0.00 0.00 0.00 85 1021.5
20260831124605 76 179 2.0 4.0 0.00 0.00 0.00 86 1021.6
20260831124101 76 169 0.0 3.0 0.00 0.00 0.00 86 1021.4
20260831123600 76 111 2.0 3.0 0.00 0.00 0.00 86 1021.2
20260831123054 76 118 2.0 3.0 0.00 0.00 0.00 87 1021.3
20260831122554 75 142 1.0 4.0 0.00 0.00 0.00 87 1021.3
20260831122051 75 124 1.0 2.0 0.00 0.00 0.00 87 1021.0
20260831121550 75 187 3.0 8.0 0.00 0.00 0.00 88 1020.8
20260831121046 75 146 2.0 6.0 0.00 0.00 0.00 88 1020.6
20260831120545 74 161 2.0 4.0 0.00 0.00 0.00 88 1020.5
20260831120041 74 188 0.0 3.0 0.00 0.00 0.00 89 1020.7
20260831115537 74 171 1.0 3.0 0.00 0.00 0.00 89 1020.6
20260831115032 74 155 0.0 2.0 0.00 0.00 0.00 89 1020.5
20260831114531 74 175 0.0 3.0 0.00 0.00 0.00 89 1020.5
20260831114026 74 161 0.0 2.0 0.00 0.00 0.00 89 1020.4
20260831113525 74 174 2.0 3.0 0.00 0.00 0.00 89 1020.4
20260831113021 74 149 1.0 2.0 0.00 0.00 0.00 88 1020.2
20260831112520 74 175 1.0 2.0 0.00 0.00 0.00 88 1020.3
20260831112016 74 145 1.0 2.0 0.00 0.00 0.00 88 1020.4
20260831111512 74 181 1.0 3.0 0.00 0.00 0.00 88 1020.2
20260831111007 74 174 2.0 3.0 0.00 0.00 0.00 87 1020.2
20260831110502 74 157 1.0 2.0 0.00 0.00 0.00 87 1020.1
20260831110001 74 154 0.0 1.0 0.00 0.00 0.00 86 1020.0
20260831105456 74 129 0.0 2.0 0.00 0.00 0.00 86 1020.1
20260831104951 75 154 0.0 0.0 0.00 0.00 0.00 86 1019.9
20260831104447 75 154 0.0 0.0 0.00 0.00 0.00 86 1020.0
20260831103943 75 154 0.0 1.0 0.00 0.00 0.00 86 1020.0
20260831103438 75 189 1.0 2.0 0.00 0.00 0.00 87 1019.8
20260831102933 75 186 0.0 3.0 0.00 0.00 0.00 87 1019.7
20260831102433 75 157 0.0 3.0 0.00 0.00 0.00 87 1019.6
20260831101928 75 171 2.0 3.0 0.00 0.00 0.00 87 1019.6
20260831101423 75 186 1.0 3.0 0.00 0.00 0.00 86 1019.8
20260831100920 75 169 1.0 3.0 0.00 0.00 0.00 86 1019.6
20260831100415 75 181 2.0 3.0 0.00 0.00 0.00 86 1019.8
20260831095910 75 165 2.0 3.0 0.00 0.00 0.00 86 1019.9
20260831095409 75 146 1.0 3.0 0.00 0.00 0.00 86 1019.7
20260831094904 75 179 1.0 3.0 0.00 0.00 0.00 85 1019.8
20260831094400 75 174 2.0 2.0 0.00 0.00 0.00 85 1019.6
20260831093855 75 179 1.0 2.0 0.00 0.00 0.00 85 1019.6
20260831093345 75 159 1.0 2.0 0.00 0.00 0.00 86 1019.6
20260831092842 75 138 2.0 3.0 0.00 0.00 0.00 86 1019.3
20260831092337 75 173 2.0 3.0 0.00 0.00 0.00 86 1019.4
20260831091832 75 138 1.0 3.0 0.00 0.00 0.00 86 1019.5
20260831091328 75 186 3.0 3.0 0.00 0.00 0.00 86 1019.5
20260831090823 75 192 2.0 3.0 0.00 0.00 0.00 86 1019.5
20260831090319 75 182 2.0 3.0 0.00 0.00 0.00 86 1019.5
20260831085815 75 175 2.0 3.0 0.00 0.00 0.00 85 1019.3
20260831085309 75 150 2.0 3.0 0.00 0.00 0.00 85 1019.3
20260831084804 75 148 2.0 3.0 0.00 0.00 0.00 85 1019.3
20260831084300 75 154 2.0 3.0 0.00 0.00 0.00 85 1019.3
20260831083756 75 158 2.0 3.0 0.00 0.00 0.00 85 1019.1
20260831083251 75 156 2.0 2.0 0.00 0.00 0.00 85 1019.2
20260831082750 75 174 1.0 3.0 0.00 0.00 0.00 85 1019.3
20260831082245 75 159 2.0 2.0 0.00 0.00 0.00 85 1019.2
20260831081740 75 158 2.0 3.0 0.00 0.00 0.00 84 1019.1
20260831081236 76 160 0.0 2.0 0.00 0.00 0.00 83 1018.9
20260831080731 76 131 1.0 3.0 0.00 0.00 0.00 83 1018.9
20260831080226 76 117 0.0 0.0 0.00 0.00 0.00 82 1019.1
20260831075722 76 127 1.0 1.0 0.00 0.00 0.00 82 1019.0
20260831075217 76 89 0.0 2.0 0.00 0.00 0.00 82 1019.2
20260831074716 76 104 0.0 1.0 0.00 0.00 0.00 82 1019.1
20260831074210 77 117 0.0 0.0 0.00 0.00 0.00 81 1019.0
20260831073706 77 117 0.0 1.0 0.00 0.00 0.00 81 1019.0
20260831073205 77 137 1.0 2.0 0.00 0.00 0.00 81 1019.2
20260831072701 77 89 0.0 2.0 0.00 0.00 0.00 80 1019.0
20260831072157 77 37 0.0 1.0 0.00 0.00 0.00 80 1019.2
20260831071656 77 147 0.0 0.0 0.00 0.00 0.00 80 1019.1
20260831071151 77 144 0.0 1.0 0.00 0.00 0.00 80 1019.1
20260831070650 77 140 1.0 2.0 0.00 0.00 0.00 80 1019.0
20260831070144 77 142 0.0 2.0 0.00 0.00 0.00 80 1019.0
20260831065643 77 167 1.0 2.0 0.00 0.00 0.00 80 1019.1
20260831065137 77 197 0.0 3.0 0.00 0.00 0.00 80 1019.1
20260831064632 77 144 0.0 2.0 0.00 0.00 0.00 80 1019.1
20260831064127 78 165 1.0 3.0 0.00 0.00 0.00 80 1019.2
20260831063624 78 164 2.0 2.0 0.00 0.00 0.00 79 1019.2
20260831063118 78 127 2.0 3.0 0.00 0.00 0.00 79 1019.2
20260831062613 78 131 2.0 3.0 0.00 0.00 0.00 79 1019.2
20260831062112 78 173 2.0 3.0 0.00 0.00 0.00 79 1019.2
20260831061610 78 152 1.0 2.0 0.00 0.00 0.00 79 1019.2
20260831061107 78 182 2.0 2.0 0.00 0.00 0.00 79 1019.2
20260831060602 78 155 2.0 3.0 0.00 0.00 0.00 78 1019.3
20260831060056 78 148 2.0 2.0 0.00 0.00 0.00 78 1019.4
20260831055551 78 148 2.0 2.0 0.00 0.00 0.00 78 1019.2
20260831055047 78 136 2.0 2.0 0.00 0.00 0.00 78 1019.2
20260831054546 78 121 3.0 3.0 0.00 0.00 0.00 78 1019.3
20260831054045 79 192 1.0 3.0 0.00 0.00 0.00 77 1019.1
20260831053544 79 159 2.0 2.0 0.00 0.00 0.00 77 1019.2
20260831053039 79 119 2.0 3.0 0.00 0.00 0.00 77 1019.3
20260831052538 79 157 2.0 3.0 0.00 0.00 0.00 78 1019.1
20260831052037 79 180 3.0 3.0 0.00 0.00 0.00 78 1019.2
20260831051535 79 147 1.0 3.0 0.00 0.00 0.00 78 1019.2
20260831051030 79 157 2.0 3.0 0.00 0.00 0.00 78 1019.3
20260831050530 79 145 2.0 3.0 0.00 0.00 0.00 78 1019.4
20260831050028 79 178 2.0 3.0 0.00 0.00 0.00 78 1019.3
20260831045527 79 175 2.0 3.0 0.00 0.00 0.00 78 1019.3
20260831045023 79 147 2.0 3.0 0.00 0.00 0.00 78 1019.5
20260831044518 78 140 2.0 3.0 0.00 0.00 0.00 78 1019.3
20260831044014 78 165 2.0 3.0 0.00 0.00 0.00 78 1019.3
20260831043513 78 168 2.0 2.0 0.00 0.00 0.00 78 1019.4
20260831043009 78 173 2.0 3.0 0.00 0.00 0.00 78 1019.3
20260831042509 78 162 2.0 3.0 0.00 0.00 0.00 78 1019.4
20260831042003 79 178 2.0 2.0 0.00 0.00 0.00 78 1019.4
20260831041458 79 175 2.0 3.0 0.00 0.00 0.00 78 1019.3
20260831040952 78 154 2.0 3.0 0.00 0.00 0.00 79 1019.2
20260831040447 78 167 2.0 3.0 0.00 0.00 0.00 79 1019.3
20260831035944 78 167 2.0 3.0 0.00 0.00 0.00 79 1019.2
20260831035443 78 185 0.0 1.0 0.00 0.00 0.00 79 1019.3
20260831034939 78 147 1.0 2.0 0.00 0.00 0.00 80 1019.2
20260831034434 78 146 0.0 2.0 0.00 0.00 0.00 80 1019.3
20260831033929 78 150 1.0 2.0 0.00 0.00 0.00 79 1019.2
20260831033424 78 166 1.0 1.0 0.00 0.00 0.00 79 1019.4
20260831032919 78 142 0.0 0.0 0.00 0.00 0.00 78 1019.3
20260831032414 79 157 0.0 1.0 0.00 0.00 0.00 78 1019.4
20260831031909 79 150 1.0 2.0 0.00 0.00 0.00 77 1019.5
20260831031408 79 44 0.0 0.0 0.00 0.00 0.00 77 1019.5
20260831030903 79 104 0.0 0.0 0.00 0.00 0.00 77 1019.4
20260831030402 79 104 0.0 0.0 0.00 0.00 0.00 77 1019.3
20260831025901 79 142 0.0 0.0 0.00 0.00 0.00 77 1019.5
20260831025401 79 142 0.0 0.0 0.00 0.00 0.00 77 1019.4
20260831024856 79 135 0.0 2.0 0.00 0.00 0.00 77 1019.4
20260831024356 80 145 0.0 1.0 0.00 0.00 0.00 77 1019.3
20260831023855 80 104 0.0 2.0 0.00 0.00 0.00 76 1019.2
20260831023354 80 136 0.0 2.0 0.00 0.00 0.00 76 1019.2
20260831022849 80 142 0.0 0.0 0.00 0.00 0.00 76 1019.2
20260831022348 80 154 0.0 2.0 0.00 0.00 0.00 75 1019.1
20260831021842 81 134 0.0 1.0 0.00 0.00 0.00 74 1019.1
20260831021337 81 142 0.0 1.0 0.00 0.00 0.00 74 1019.3
20260831020833 82 129 0.0 1.0 0.00 0.00 0.00 72 1019.3
20260831020332 82 154 0.0 0.0 0.00 0.00 0.00 72 1019.2
20260831015828 82 154 0.0 0.0 0.00 0.00 0.00 72 1019.3
20260831015324 82 154 0.0 0.0 0.00 0.00 0.00 72 1019.2
20260831014823 82 154 0.0 0.0 0.00 0.00 0.00 71 1019.1
20260831014318 82 154 0.0 0.0 0.00 0.00 0.00 71 1018.9
20260831013814 82 154 0.0 0.0 0.00 0.00 0.00 70 1018.9
20260831013314 82 154 0.0 0.0 0.00 0.00 0.00 70 1018.8
20260831012809 83 154 0.0 0.0 0.00 0.00 0.00 70 1018.9
20260831012306 83 154 0.0 0.0 0.00 0.00 0.00 70 1018.8
20260831011803 83 154 0.0 0.0 0.00 0.00 0.00 69 1018.5
20260831011259 83 154 0.0 1.0 0.00 0.00 0.00 69 1018.4
20260831010754 83 129 0.0 0.0 0.00 0.00 0.00 68 1018.6
20260831010249 84 129 0.0 0.0 0.00 0.00 0.00 68 1018.6
20260831005745 84 154 0.0 0.0 0.00 0.00 0.00 67 1018.4
20260831005240 84 154 0.0 1.0 0.00 0.00 0.00 66 1018.3
20260831004735 85 142 0.0 1.0 0.00 0.00 0.00 65 1018.5
20260831004231 85 89 0.0 0.0 0.00 0.00 0.00 65 1018.5
20260831003726 85 89 0.0 0.0 0.00 0.00 0.00 64 1018.3
20260831003223 85 89 0.0 0.0 0.00 0.00 0.00 64 1018.3
20260831002722 86 89 0.0 0.0 0.00 0.00 0.00 64 1018.2
20260831002216 86 34 0.0 0.0 0.00 0.00 0.00 64 1018.2
20260831001712 86 351 0.0 1.0 0.00 0.00 0.00 63 1018.4
20260831001212 86 355 1.0 1.0 0.00 0.00 0.00 63 1018.4
20260831000709 86 330 0.0 1.0 0.00 0.00 0.00 62 1018.2
20260831000204 87 0 1.0 1.0 0.00 0.00 0.00 61 1018.2
20260830235703 87 345 1.0 2.0 0.00 0.00 0.00 61 1018.3
20260830235158 87 0 1.0 2.0 0.00 0.00 0.00 60 1018.3
20260830234652 88 338 2.0 4.0 0.00 0.00 0.00 60 1018.4
20260830234143 88 11 2.0 3.0 0.00 0.00 0.00 59 1018.3
20260830233638 88 351 0.0 1.0 0.00 0.00 0.00 59 1018.3
20260830233133 88 38 0.0 1.0 0.00 0.00 0.00 58 1018.2
20260830232629 88 135 0.0 2.0 0.00 0.00 0.00 58 1018.2
20260830232125 89 117 0.0 3.0 0.00 0.00 0.00 57 1018.2
20260830231621 89 155 1.0 4.0 0.00 0.00 0.00 57 1018.1
20260830231120 89 122 1.0 5.0 0.00 0.00 0.00 56 1018.1
20260830230615 89 183 1.0 7.0 0.00 0.00 0.00 55 1018.0
20260830230110 89 148 2.0 7.0 0.00 0.00 0.00 55 1017.9
20260830225605 89 138 3.0 5.0 0.00 0.00 0.00 55 1018.1
20260830225100 90 166 1.0 6.0 0.00 0.00 0.00 55 1018.0
20260830224558 90 131 1.0 3.0 0.00 0.00 0.00 54 1017.9
20260830224055 90 145 1.0 3.0 0.00 0.00 0.00 53 1018.0
20260830223551 91 149 2.0 7.0 0.00 0.00 0.00 53 1017.7
20260830223045 91 126 5.0 6.0 0.00 0.00 0.00 52 1017.7
20260830222540 91 111 0.0 3.0 0.00 0.00 0.00 52 1017.9
20260830222036 91 185 0.0 7.0 0.00 0.00 0.00 51 1017.9
20260830221532 92 149 1.0 5.0 0.00 0.00 0.00 51 1017.9
20260830221028 92 195 3.0 6.0 0.00 0.00 0.00 51 1017.9
20260830220527 92 222 0.0 2.0 0.00 0.00 0.00 51 1017.9
20260830220026 92 294 2.0 2.0 0.00 0.00 0.00 50 1017.8
20260830215520 92 347 2.0 3.0 0.00 0.00 0.00 51 1017.8
20260830215015 92 113 0.0 4.0 0.00 0.00 0.00 51 1018.0
20260830214510 92 89 3.0 5.0 0.00 0.00 0.00 51 1017.8
20260830214004 92 53 2.0 3.0 0.00 0.00 0.00 51 1018.0
20260830213459 92 292 2.0 5.0 0.00 0.00 0.00 51 1017.8
20260830212954 91 213 3.0 7.0 0.00 0.00 0.00 51 1017.9
20260830212450 91 132 2.0 4.0 0.00 0.00 0.00 51 1018.1
20260830211949 91 70 1.0 5.0 0.00 0.00 0.00 52 1018.0
20260830211444 91 202 0.0 4.0 0.00 0.00 0.00 52 1018.1
20260830210939 90 204 3.0 4.0 0.00 0.00 0.00 53 1018.3
20260830210433 90 209 2.0 4.0 0.00 0.00 0.00 54 1018.2
20260830205931 90 202 3.0 4.0 0.00 0.00 0.00 54 1018.2
20260830205430 90 191 4.0 5.0 0.00 0.00 0.00 52 1018.3
20260830204920 91 121 4.0 8.0 0.00 0.00 0.00 52 1018.3
20260830204419 91 139 3.0 4.0 0.00 0.00 0.00 52 1018.3
20260830203914 91 206 1.0 3.0 0.00 0.00 0.00 54 1018.4
20260830203411 90 4 2.0 3.0 0.00 0.00 0.00 55 1018.5
20260830202910 90 37 0.0 1.0 0.00 0.00 0.00 55 1018.6
20260830202405 90 25 0.0 3.0 0.00 0.00 0.00 55 1018.6
20260830201900 90 80 0.0 2.0 0.00 0.00 0.00 55 1018.7
20260830201354 90 86 1.0 2.0 0.00 0.00 0.00 54 1018.6
20260830200849 90 164 2.0 4.0 0.00 0.00 0.00 53 1018.8
20260830200349 91 172 1.0 3.0 0.00 0.00 0.00 53 1018.9
20260830195839 91 199 4.0 9.0 0.00 0.00 0.00 52 1018.8
20260830195338 91 170 0.0 3.0 0.00 0.00 0.00 54 1019.0
20260830194837 90 119 3.0 7.0 0.00 0.00 0.00 55 1019.1
20260830194336 89 344 1.0 6.0 0.00 0.00 0.00 55 1019.0